When you browse on this site, cookies collect data to enhance your experience and personalize the content and advertising you see.
Visit our Privacy Policy to learn more. By continuing to use the site, you agree to this use of cookies and data.
  • In Lithuania
  • List of Countries
  • For 7 days
  • Water Temperature
  • Weather Map
  • Weather Widgets
  • user-avatar
    Login

    Hourly Weather Chakhansur

    Today, 9 December, Monday

    Time Temperature Precipitation Wind Pressure Humidity
    00:00 +17°C° 0.1 mm 3 mps 720 mmHg 50%
    01:00 +17°C° 0.1 mm 3 mps 720 mmHg 53%
    02:00 +17°C° 0.1 mm 3 mps 719 mmHg 57%
    03:00 +16°C° 0.1 mm 3 mps 719 mmHg 61%
    04:00 +16°C° 0 mm 3 mps 719 mmHg 62%
    05:00 +14°C° 0 mm 3 mps 720 mmHg 63%
    06:00 +14°C° 0 mm 3 mps 720 mmHg 65%
    07:00 +14°C° 0 mm 3 mps 720 mmHg 66%
    08:00 +17°C° 0 mm 4 mps 720 mmHg 62%
    09:00 +18°C° 0 mm 4 mps 721 mmHg 58%
    10:00 +20°C° 0 mm 4 mps 721 mmHg 53%
    11:00 +21°C° 0 mm 4 mps 720 mmHg 50%
    12:00 +22°C° 0 mm 3 mps 720 mmHg 47%
    13:00 +24°C° 0 mm 3 mps 719 mmHg 44%
    14:00 +24°C° 0 mm 2 mps 719 mmHg 42%
    15:00 +24°C° 0 mm 2 mps 719 mmHg 41%
    16:00 +24°C° 0 mm 1 mps 719 mmHg 40%
    17:00 +23°C° 0 mm 1 mps 719 mmHg 43%
    18:00 +22°C° 0 mm 1 mps 719 mmHg 46%
    19:00 +21°C° 0 mm 1 mps 719 mmHg 48%
    20:00 +20°C° 0.4 mm 2 mps 719 mmHg 51%
    21:00 +19°C° 0.4 mm 2 mps 719 mmHg 54%
    22:00 +19°C° 0.4 mm 2 mps 719 mmHg 57%
    23:00 +18°C° 0.4 mm 2 mps 719 mmHg 61%

    Tomorrow, 10 December, Tuesday

    Time Temperature Precipitation Wind Pressure Humidity
    00:00 +18°C° 0.4 mm 2 mps 719 mmHg 64%
    01:00 +17°C° 0.4 mm 3 mps 719 mmHg 67%
    02:00 +16°C° 0 mm 3 mps 719 mmHg 68%
    03:00 +16°C° 0 mm 3 mps 719 mmHg 68%
    04:00 +15°C° 0 mm 4 mps 719 mmHg 69%
    05:00 +14°C° 0 mm 3 mps 719 mmHg 70%
    06:00 +14°C° 0 mm 3 mps 719 mmHg 72%
    07:00 +15°C° 0 mm 2 mps 720 mmHg 74%
    08:00 +16°C° 0 mm 2 mps 720 mmHg 69%
    09:00 +17°C° 0 mm 2 mps 720 mmHg 64%
    10:00 +18°C° 0 mm 2 mps 721 mmHg 59%
    11:00 +19°C° 0 mm 2 mps 720 mmHg 55%
    12:00 +20°C° 0 mm 2 mps 720 mmHg 50%
    13:00 +21°C° 0 mm 2 mps 719 mmHg 45%
    14:00 +21°C° 0 mm 2 mps 719 mmHg 44%
    15:00 +21°C° 0 mm 2 mps 719 mmHg 42%
    16:00 +21°C° 0 mm 2 mps 718 mmHg 40%
    17:00 +20°C° 0 mm 2 mps 719 mmHg 43%
    18:00 +19°C° 0 mm 2 mps 719 mmHg 47%
    19:00 +20°C° 0 mm 1 mps 719 mmHg 50%
    20:00 +18°C° 0 mm 2 mps 719 mmHg 53%
    21:00 +18°C° 0 mm 2 mps 719 mmHg 56%
    22:00 +17°C° 0 mm 3 mps 719 mmHg 59%
    23:00 +17°C° 0 mm 3 mps 719 mmHg 59%

    Day after tomorrow, 11 December, Wednesday

    Time Temperature Precipitation Wind Pressure Humidity
    00:00 +16°C° 0 mm 3 mps 719 mmHg 60%
    01:00 +16°C° 0 mm 3 mps 719 mmHg 61%
    02:00 +16°C° 0 mm 2 mps 718 mmHg 62%
    03:00 +15°C° 0 mm 2 mps 718 mmHg 63%
    04:00 +15°C° 0 mm 2 mps 718 mmHg 64%
    05:00 +15°C° 0 mm 1 mps 718 mmHg 63%
    06:00 +15°C° 0 mm 1 mps 718 mmHg 62%
    07:00 +15°C° 0 mm 1 mps 718 mmHg 61%
    08:00 +15°C° 0 mm 1 mps 718 mmHg 58%
    09:00 +16°C° 0 mm 2 mps 718 mmHg 55%
    10:00 +17°C° 0 mm 2 mps 718 mmHg 52%
    11:00 +17°C° 0.2 mm 3 mps 718 mmHg 52%
    12:00 +17°C° 0.2 mm 4 mps 718 mmHg 53%
    13:00 +16°C° 0.2 mm 5 mps 717 mmHg 53%
    14:00 +16°C° 0 mm 5 mps 717 mmHg 52%
    15:00 +16°C° 0 mm 6 mps 717 mmHg 52%
    16:00 +15°C° 0 mm 7 mps 717 mmHg 51%
    17:00 +15°C° 0 mm 5 mps 717 mmHg 53%
    18:00 +14°C° 0 mm 4 mps 718 mmHg 55%
    19:00 +15°C° 0 mm 2 mps 718 mmHg 58%
    20:00 +14°C° 0 mm 2 mps 718 mmHg 62%
    21:00 +13°C° 0 mm 1 mps 718 mmHg 65%
    22:00 +13°C° 0 mm 1 mps 718 mmHg 69%
    23:00 +12°C° 0 mm 1 mps 718 mmHg 72%

    12 December, Thursday

    Time Temperature Precipitation Wind Pressure Humidity
    00:00 +11°C° 0 mm 0 mps 718 mmHg 76%
    01:00 +11°C° 0 mm 0 mps 718 mmHg 79%
    02:00 +10°C° 0 mm 0 mps 717 mmHg 79%
    03:00 +11°C° 0 mm 1 mps 717 mmHg 80%
    04:00 +11°C° 0 mm 1 mps 717 mmHg 80%
    05:00 +11°C° 0 mm 1 mps 717 mmHg 81%
    06:00 +10°C° 0 mm 0 mps 718 mmHg 81%
    07:00 +9°C° 0 mm 0 mps 718 mmHg 82%
    08:00 +11°C° 0 mm 0 mps 718 mmHg 74%
    09:00 +12°C° 0 mm 0 mps 718 mmHg 66%
    10:00 +14°C° 0 mm 0 mps 719 mmHg 58%
    11:00 +16°C° 0 mm 1 mps 718 mmHg 54%
    12:00 +18°C° 0 mm 1 mps 718 mmHg 50%
    13:00 +19°C° 0 mm 1 mps 717 mmHg 46%
    14:00 +19°C° 0 mm 1 mps 717 mmHg 45%
    15:00 +19°C° 0 mm 1 mps 717 mmHg 43%
    16:00 +19°C° 0 mm 1 mps 717 mmHg 42%
    17:00 +18°C° 0 mm 1 mps 717 mmHg 42%
    18:00 +18°C° 0 mm 1 mps 717 mmHg 42%
    19:00 +16°C° 0 mm 1 mps 718 mmHg 42%
    20:00 +15°C° 0 mm 2 mps 718 mmHg 42%
    21:00 +14°C° 0 mm 3 mps 718 mmHg 41%
    22:00 +13°C° 0 mm 4 mps 719 mmHg 40%
    23:00 +13°C° 0 mm 4 mps 719 mmHg 43%

    13 December, Friday

    Time Temperature Precipitation Wind Pressure Humidity
    00:00 +12°C° 0 mm 3 mps 718 mmHg 46%
    01:00 +12°C° 0 mm 3 mps 718 mmHg 48%
    02:00 +11°C° 0 mm 3 mps 718 mmHg 50%
    03:00 +11°C° 0 mm 3 mps 718 mmHg 51%
    04:00 +10°C° 0 mm 3 mps 718 mmHg 53%
    05:00 +10°C° 0 mm 2 mps 718 mmHg 55%
    06:00 +9°C° 0 mm 2 mps 718 mmHg 57%
    07:00 +10°C° 0 mm 1 mps 718 mmHg 59%
    08:00 +11°C° 0 mm 1 mps 718 mmHg 54%
    09:00 +12°C° 0 mm 0 mps 719 mmHg 48%
    10:00 +13°C° 0 mm 0 mps 719 mmHg 43%
    11:00 +14°C° 0 mm 0 mps 719 mmHg 40%
    12:00 +15°C° 0 mm 0 mps 718 mmHg 36%
    13:00 +16°C° 0 mm 0 mps 718 mmHg 33%
    14:00 +18°C° 0 mm 1 mps 718 mmHg 34%
    15:00 +18°C° 0 mm 1 mps 718 mmHg 34%
    16:00 +17°C° 0 mm 2 mps 718 mmHg 34%
    17:00 +17°C° 0 mm 2 mps 718 mmHg 35%
    18:00 +17°C° 0 mm 3 mps 718 mmHg 37%
    19:00 +17°C° 0 mm 4 mps 718 mmHg 38%
    20:00 +15°C° 0 mm 4 mps 718 mmHg 40%
    21:00 +15°C° 0 mm 4 mps 718 mmHg 42%
    22:00 +15°C° 0 mm 4 mps 718 mmHg 44%
    23:00 +14°C° 0 mm 5 mps 718 mmHg 44%

    14 December, Saturday

    Time Temperature Precipitation Wind Pressure Humidity
    00:00 +14°C° 0 mm 5 mps 718 mmHg 44%
    01:00 +14°C° 0 mm 5 mps 717 mmHg 45%
    02:00 +13°C° 0 mm 5 mps 717 mmHg 46%
    03:00 +13°C° 0 mm 5 mps 717 mmHg 47%
    04:00 +13°C° 0 mm 5 mps 717 mmHg 48%
    05:00 +13°C° 0 mm 4 mps 717 mmHg 49%
    06:00 +12°C° 0 mm 4 mps 718 mmHg 51%
    07:00 +12°C° 0 mm 4 mps 718 mmHg 52%
    08:00 +14°C° 0 mm 4 mps 718 mmHg 49%
    09:00 +16°C° 0 mm 3 mps 719 mmHg 46%
    10:00 +17°C° 0 mm 3 mps 719 mmHg 42%
    11:00 +18°C° 0 mm 2 mps 719 mmHg 41%
    12:00 +19°C° 0 mm 2 mps 718 mmHg 39%
    13:00 +21°C° 0 mm 1 mps 718 mmHg 38%
    14:00 +21°C° 0 mm 1 mps 718 mmHg 38%
    15:00 +21°C° 0 mm 1 mps 718 mmHg 38%
    16:00 +21°C° 0 mm 1 mps 718 mmHg 39%
    17:00 +20°C° 0 mm 1 mps 718 mmHg 41%
    18:00 +19°C° 0 mm 2 mps 718 mmHg 44%
    19:00 +18°C° 0 mm 2 mps 718 mmHg 46%
    20:00 +17°C° 0 mm 3 mps 719 mmHg 48%
    21:00 +17°C° 0 mm 4 mps 719 mmHg 50%
    22:00 +16°C° 0 mm 5 mps 719 mmHg 52%
    23:00 +15°C° 0 mm 5 mps 719 mmHg 55%
    Show more